Location: Borkenes
(68.7830°N, 16.1830°E)
Time: 20:34:45
(UTC+01:00)

S-56A Canister/Altair - All Passes

Search period start: 10 December 2019 00:00
Search period end: 20 December 2019 00:00
Orbit: 633 x 2499 km, 38.9° (Epoch: 10 December)

Date Brightness Start Highest point End Pass type
(mag) Time Alt. Az. Time Alt. Az. Time Alt. Az.
10 Dec - 11:08:27 10° SSW 11:15:17 15° SSE 11:21:52 10° SE daylight
10 Dec - 13:09:59 10° SW 13:17:13 16° S 13:23:59 10° SSE daylight
10 Dec - 15:16:50 10° SW 15:18:45 10° SW 15:20:38 10° SSW visible
11 Dec - 10:35:46 10° S 10:42:21 14° SSE 10:48:49 10° SE daylight
11 Dec - 12:36:44 10° SW 12:44:18 16° S 12:51:28 10° SSE daylight
11 Dec - 14:41:55 10° SW 14:45:58 12° SSW 14:49:51 10° SSW visible
12 Dec - 10:03:15 10° S 10:09:26 14° SSE 10:15:36 10° SE daylight
12 Dec - 12:03:35 10° SW 12:11:22 16° S 12:18:50 10° SSE daylight
12 Dec - 14:07:52 10° SW 14:13:09 13° SSW 14:18:12 10° S visible
13 Dec - 09:30:55 10° S 09:36:32 13° SSE 09:42:11 10° SE daylight
13 Dec - 11:30:34 10° SSW 11:38:24 17° S 11:46:05 10° SSE daylight
13 Dec - 13:34:08 10° SW 13:40:17 14° SSW 13:46:11 10° S daylight
14 Dec - 08:58:51 10° S 09:03:40 12° SSE 09:08:33 10° SE visible
14 Dec - 10:57:40 10° SSW 11:05:27 17° S 11:13:11 10° SE daylight
14 Dec - 13:00:39 10° SW 13:07:23 15° SSW 13:13:56 10° S daylight
15 Dec - 08:27:11 10° SSE 08:30:49 11° SSE 08:34:30 10° SE visible
15 Dec - 10:24:54 10° SSW 10:32:29 16° S 10:40:10 10° SE daylight
15 Dec - 12:27:19 10° SW 12:34:28 15° SSW 12:41:30 10° SSE daylight
16 Dec - 07:56:44 10° SSE 07:58:00 10° SE 07:59:16 10° SE visible
16 Dec - 09:52:16 10° SSW 09:59:33 16° SSE 10:07:02 10° SE daylight
16 Dec - 11:54:08 10° SW 12:01:32 16° SSW 12:08:54 10° SSE daylight
17 Dec - 09:19:46 10° SSW 09:26:37 15° SSE 09:33:45 10° SE visible
17 Dec - 11:21:06 10° SW 11:28:35 16° S 11:36:10 10° SSE daylight
17 Dec - 13:26:58 10° SW 13:30:17 11° SW 13:33:34 10° SSW daylight
18 Dec - 08:47:27 10° S 08:53:43 15° SSE 09:00:19 10° SE visible
18 Dec - 10:48:11 10° SW 10:55:38 16° S 11:03:19 10° SSE daylight
18 Dec - 12:52:58 10° SW 12:57:25 12° SSW 13:01:53 10° SSW daylight
19 Dec - 08:15:19 10° S 08:20:51 14° SSE 08:26:43 10° SE visible
19 Dec - 10:15:25 10° SSW 10:22:41 16° S 10:30:19 10° SSE daylight
19 Dec - 12:19:23 10° SW 12:24:32 13° SSW 12:29:46 10° S daylight
